This is the latest recevied weather packets stored in our database for station/object CE1RLP-34. If no packets are shown the sender has not sent any weather packets the latest 1 day(s).
| Time | Temp. | Humidity | Pressure | Rain* | Wind** | Luminosity | Snow |
|---|---|---|---|---|---|---|---|
| 1777848620 | 18.89° C | 5% | 1082.5 hPa | - | - | - | - |
| 1777847720 | 20.56° C | 5% | 1082.5 hPa | - | - | - | - |
| 1777846818 | 21.67° C | 5% | 1082.5 hPa | - | - | - | - |
| 1777845918 | 22.78° C | 4% | 1082.4 hPa | - | - | - | - |
| 1777845015 | 23.89° C | 4% | 1082.4 hPa | - | - | - | - |
| 1777844115 | 25.56° C | 3% | 1082.5 hPa | - | - | - | - |
| 1777843213 | 27.22° C | 4% | 1082.4 hPa | - | - | - | - |
| 1777842313 | 30.56° C | 3% | 1082.3 hPa | - | - | - | - |
| 1777841410 | 32.22° C | 3% | 1082.6 hPa | - | - | - | - |
| 1777840510 | 33.33° C | 3% | 1082.5 hPa | - | - | - | - |
| 1777839608 | 34.44° C | 4% | 1082.7 hPa | - | - | - | - |
| 1777838708 | 34.44° C | 4% | 1082.7 hPa | - | - | - | - |
| 1777837806 | 34.44° C | 4% | 1082.7 hPa | - | - | - | - |
| 1777836905 | 34.44° C | 4% | 1082.7 hPa | - | - | - | - |
| 1777836003 | 34.44° C | 4% | 1082.8 hPa | - | - | - | - |
| 1777835103 | 34.44° C | 4% | 1082.8 hPa | - | - | - | - |
| 1777834202 | 35° C | 4% | 1082.9 hPa | - | - | - | - |
| 1777833300 | 34.44° C | 3% | 1083.1 hPa | - | - | - | - |
| 1777832398 | 33.89° C | 4% | 1083.2 hPa | - | - | - | - |
| 1777830625 | 31.67° C | 4% | 1083.3 hPa | - | - | - | - |
| 1777829725 | 30.56° C | 3% | 1083.4 hPa | - | - | - | - |
| 1777828822 | 29.44° C | 3% | 1083.5 hPa | - | - | - | - |
| 1777827922 | 29.44° C | 3% | 1083.6 hPa | - | - | - | - |
| 1777827019 | 28.89° C | 3% | 1083.7 hPa | - | - | - | - |
| 1777826120 | 28.33° C | 3% | 1083.9 hPa | - | - | - | - |
* Rain since midnight (hover to see other rain measurements)
** Current wind speed in m/s (hover to see current wind gust speed)